Time,TemperatureF,DewpointF,PressureIn,WindDirection,WindDirectionDegrees,WindSpeedMPH,WindSpeedGustMPH,Humidity,HourlyPrecipIn,Conditions,Clouds,dailyrainin,SoftwareType,DateUTC
2013-10-21 00:13:00,54.0,-99.9,-100.00,WSW,257,6.0,12.0,-999,0.00,,,0.00,,2013-10-21 05:13:00,
2013-10-21 00:23:00,54.0,-99.9,-100.00,WSW,257,6.0,12.0,-999,0.00,,,0.00,,2013-10-21 05:23:00,
2013-10-21 00:43:00,53.0,-99.9,-100.00,WSW,249,5.0,9.0,-999,0.00,,,0.00,,2013-10-21 05:43:00,
2013-10-21 00:52:00,53.0,-99.9,-100.00,WSW,249,5.0,9.0,-999,0.00,,,0.00,,2013-10-21 05:52:00,
2013-10-21 01:12:00,52.0,-99.9,-100.00,West,260,6.0,9.0,-999,0.00,,,0.00,,2013-10-21 06:12:00,
2013-10-21 01:22:00,52.0,-99.9,-100.00,West,260,6.0,9.0,-999,0.00,,,0.00,,2013-10-21 06:22:00,
2013-10-21 01:42:00,51.0,-99.9,-100.00,WSW,254,4.0,7.0,-999,0.00,,,0.00,,2013-10-21 06:42:00,
2013-10-21 02:12:00,50.0,-99.9,-100.00,WSW,241,5.0,7.0,-999,0.00,,,0.00,,2013-10-21 07:12:00,
2013-10-21 02:22:00,50.0,-99.9,-100.00,WSW,241,5.0,7.0,-999,0.00,,,0.00,,2013-10-21 07:22:00,
2013-10-21 02:43:00,49.0,-99.9,-100.00,West,263,5.0,8.0,-999,0.00,,,0.00,,2013-10-21 07:43:00,
2013-10-21 02:52:00,49.0,-99.9,-100.00,West,263,5.0,8.0,-999,0.00,,,0.00,,2013-10-21 07:52:00,
2013-10-21 03:12:00,47.0,-99.9,-100.00,WSW,250,6.0,9.0,-999,0.00,,,0.00,,2013-10-21 08:12:00,
2013-10-21 03:22:00,47.0,-99.9,-100.00,WSW,250,6.0,9.0,-999,0.00,,,0.00,,2013-10-21 08:22:00,
2013-10-21 03:42:00,46.0,-99.9,-100.00,WSW,252,6.0,9.0,-999,0.00,,,0.00,,2013-10-21 08:42:00,
2013-10-21 03:52:00,46.0,-99.9,-100.00,WSW,252,6.0,9.0,-999,0.00,,,0.00,,2013-10-21 08:52:00,
2013-10-21 04:11:00,45.0,-99.9,-100.00,West,272,5.0,8.0,-999,0.00,,,0.00,,2013-10-21 09:11:00,
2013-10-21 04:22:00,45.0,-99.9,-100.00,West,272,5.0,8.0,-999,0.00,,,0.00,,2013-10-21 09:22:00,
2013-10-21 04:43:00,44.0,-99.9,-100.00,WNW,300,7.0,14.0,-999,0.00,,,0.00,,2013-10-21 09:43:00,
2013-10-21 04:54:00,44.0,-99.9,-100.00,WNW,300,7.0,14.0,-999,0.00,,,0.00,,2013-10-21 09:54:00,
2013-10-21 05:13:00,43.0,-99.9,-100.00,NW,312,9.0,14.0,-999,0.00,,,0.00,,2013-10-21 10:13:00,
2013-10-21 05:23:00,43.0,-99.9,-100.00,NW,312,9.0,14.0,-999,0.00,,,0.00,,2013-10-21 10:23:00,
2013-10-21 05:43:00,42.0,-99.9,-100.00,WNW,293,7.0,13.0,-999,0.00,,,0.00,,2013-10-21 10:43:00,
2013-10-21 05:53:00,42.0,-99.9,-100.00,WNW,293,7.0,13.0,-999,0.00,,,0.00,,2013-10-21 10:53:00,
2013-10-21 06:12:00,42.0,-99.9,-100.00,NW,310,6.0,8.0,-999,0.00,,,0.00,,2013-10-21 11:12:00,
2013-10-21 06:22:00,42.0,-99.9,-100.00,NW,310,6.0,8.0,-999,0.00,,,0.00,,2013-10-21 11:22:00,
2013-10-21 06:42:00,41.0,-99.9,-100.00,NW,311,6.0,8.0,-999,0.00,,,0.00,,2013-10-21 11:42:00,
2013-10-21 06:52:00,41.0,-99.9,-100.00,NW,311,6.0,8.0,-999,0.00,,,0.00,,2013-10-21 11:52:00,
2013-10-21 07:12:00,41.0,-99.9,-100.00,WNW,289,4.0,9.0,-999,0.00,,,0.00,,2013-10-21 12:12:00,
2013-10-21 07:22:00,41.0,-99.9,-100.00,WNW,289,4.0,9.0,-999,0.00,,,0.00,,2013-10-21 12:22:00,
2013-10-21 07:42:00,40.0,-99.9,-100.00,WSW,248,3.0,5.0,-999,0.00,,,0.00,,2013-10-21 12:42:00,
2013-10-21 07:52:00,40.0,-99.9,-100.00,WSW,248,3.0,5.0,-999,0.00,,,0.00,,2013-10-21 12:52:00,
2013-10-21 08:11:00,39.0,-99.9,-100.00,WSW,241,6.0,8.0,-999,0.00,,,-99.99,,2013-10-21 13:11:00,
2013-10-21 08:22:00,39.0,-99.9,-100.00,WSW,241,6.0,8.0,-999,0.00,,,-99.99,,2013-10-21 13:22:00,
2013-10-21 08:42:00,39.0,-99.9,-100.00,WSW,247,4.0,7.0,-999,0.00,,,0.00,,2013-10-21 13:42:00,
2013-10-21 08:52:00,39.0,-99.9,-100.00,WSW,247,4.0,7.0,-999,0.00,,,0.00,,2013-10-21 13:52:00,
2013-10-21 09:12:00,39.0,-99.9,-100.00,WSW,253,7.0,10.0,-999,0.00,,,0.00,,2013-10-21 14:12:00,
2013-10-21 09:22:00,39.0,-99.9,-100.00,WSW,253,7.0,10.0,-999,0.00,,,0.00,,2013-10-21 14:22:00,
2013-10-21 09:42:00,40.0,-99.9,-100.00,West,274,7.0,11.0,-999,0.00,,,0.00,,2013-10-21 14:42:00,
2013-10-21 09:52:00,40.0,-99.9,-100.00,West,274,7.0,11.0,-999,0.00,,,0.00,,2013-10-21 14:52:00,
2013-10-21 10:12:00,41.0,-99.9,-100.00,West,273,10.0,16.0,-999,0.00,,,0.00,,2013-10-21 15:12:00,
2013-10-21 10:22:00,41.0,-99.9,-100.00,West,273,10.0,16.0,-999,0.00,,,0.00,,2013-10-21 15:22:00,
2013-10-21 10:43:00,41.0,-99.9,-100.00,West,273,9.0,14.0,-999,0.00,,,0.00,,2013-10-21 15:43:00,
2013-10-21 10:54:00,41.0,-99.9,-100.00,West,273,9.0,14.0,-999,0.00,,,0.00,,2013-10-21 15:54:00,
2013-10-21 11:13:00,42.0,-99.9,-100.00,West,269,13.0,22.0,-999,0.00,,,0.00,,2013-10-21 16:13:00,
2013-10-21 11:24:00,42.0,-99.9,-100.00,West,269,13.0,22.0,-999,0.00,,,0.00,,2013-10-21 16:24:00,
2013-10-21 11:43:00,42.0,-99.9,-100.00,West,270,10.0,16.0,-999,0.00,,,0.00,,2013-10-21 16:43:00,
2013-10-21 11:54:00,42.0,-99.9,-100.00,West,270,10.0,16.0,-999,0.00,,,0.00,,2013-10-21 16:54:00,
2013-10-21 12:12:00,42.0,-99.9,-100.00,West,274,14.0,21.0,-999,0.00,,,0.00,,2013-10-21 17:12:00,
2013-10-21 12:22:00,42.0,-99.9,-100.00,West,274,14.0,21.0,-999,0.00,,,0.00,,2013-10-21 17:22:00,
2013-10-21 12:43:00,43.0,-99.9,-100.00,West,275,12.0,18.0,-999,0.00,,,0.00,,2013-10-21 17:43:00,
2013-10-21 12:53:00,43.0,-99.9,-100.00,West,275,12.0,18.0,-999,0.00,,,0.00,,2013-10-21 17:53:00,
2013-10-21 13:12:00,41.0,-99.9,-100.00,West,277,12.0,19.0,-999,0.00,,,0.00,,2013-10-21 18:12:00,
2013-10-21 13:22:00,41.0,-99.9,-100.00,West,277,12.0,19.0,-999,0.00,,,0.00,,2013-10-21 18:22:00,
2013-10-21 13:42:00,43.0,-99.9,-100.00,West,278,12.0,18.0,-999,0.00,,,0.00,,2013-10-21 18:42:00,
2013-10-21 13:52:00,43.0,-99.9,-100.00,West,278,12.0,18.0,-999,0.00,,,0.00,,2013-10-21 18:52:00,
2013-10-21 14:11:00,43.0,-99.9,-100.00,West,269,12.0,22.0,-999,0.00,,,0.00,,2013-10-21 19:11:00,
2013-10-21 14:22:00,43.0,-99.9,-100.00,West,269,12.0,22.0,-999,0.00,,,0.00,,2013-10-21 19:22:00,
2013-10-21 14:42:00,45.0,-99.9,-100.00,WNW,286,9.0,18.0,-999,0.00,,,0.00,,2013-10-21 19:42:00,
2013-10-21 14:52:00,45.0,-99.9,-100.00,WNW,286,9.0,18.0,-999,0.00,,,0.00,,2013-10-21 19:52:00,
2013-10-21 15:12:00,45.0,-99.9,-100.00,West,271,9.0,17.0,-999,0.00,,,0.00,,2013-10-21 20:12:00,
2013-10-21 15:22:00,45.0,-99.9,-100.00,West,271,9.0,17.0,-999,0.00,,,0.00,,2013-10-21 20:22:00,
2013-10-21 15:43:00,46.0,-99.9,-100.00,West,281,9.0,18.0,-999,0.00,,,0.00,,2013-10-21 20:43:00,
2013-10-21 15:53:00,46.0,-99.9,-100.00,West,281,9.0,18.0,-999,0.00,,,0.00,,2013-10-21 20:53:00,
2013-10-21 16:12:00,45.0,-99.9,-100.00,West,277,12.0,17.0,-999,0.00,,,0.00,,2013-10-21 21:12:00,
2013-10-21 16:22:00,45.0,-99.9,-100.00,West,277,12.0,17.0,-999,0.00,,,0.00,,2013-10-21 21:22:00,
2013-10-21 16:44:00,45.0,-99.9,-100.00,WNW,292,7.0,19.0,-999,0.00,,,0.00,,2013-10-21 21:44:00,
2013-10-21 17:13:00,45.0,-99.9,-100.00,West,268,12.0,20.0,-999,0.00,,,0.00,,2013-10-21 22:13:00,
2013-10-21 17:24:00,45.0,-99.9,-100.00,West,268,12.0,20.0,-999,0.00,,,0.00,,2013-10-21 22:24:00,
2013-10-21 17:30:00,44.0,-99.9,-100.00,NW,305,5.0,10.0,-999,0.00,,,0.00,,2013-10-21 22:30:00,
2013-10-21 17:44:00,45.0,-99.9,-100.00,WNW,283,9.0,14.0,-999,0.00,,,0.00,,2013-10-21 22:44:00,
2013-10-21 17:54:00,45.0,-99.9,-100.00,WNW,283,9.0,14.0,-999,0.00,,,0.00,,2013-10-21 22:54:00,
2013-10-21 18:13:00,44.0,-99.9,-100.00,NW,305,5.0,10.0,-999,0.00,,,0.00,,2013-10-21 23:13:00,
2013-10-21 18:23:00,44.0,-99.9,-100.00,NW,305,5.0,10.0,-999,0.00,,,0.00,,2013-10-21 23:23:00,
2013-10-21 19:12:00,43.0,-99.9,-100.00,WNW,294,2.0,3.0,-999,0.00,,,0.00,,2013-10-22 00:12:00,
2013-10-21 19:22:00,43.0,-99.9,-100.00,WNW,294,2.0,3.0,-999,0.00,,,0.00,,2013-10-22 00:22:00,
2013-10-21 19:42:00,42.0,-99.9,-100.00,West,267,1.0,2.0,-999,0.00,,,0.00,,2013-10-22 00:42:00,
2013-10-21 19:53:00,42.0,-99.9,-100.00,West,267,1.0,2.0,-999,0.00,,,0.00,,2013-10-22 00:53:00,
2013-10-21 20:12:00,42.0,-99.9,-100.00,West,266,2.0,2.0,-999,0.00,,,0.00,,2013-10-22 01:12:00,
2013-10-21 20:22:00,42.0,-99.9,-100.00,West,266,2.0,2.0,-999,0.00,,,0.00,,2013-10-22 01:22:00,
2013-10-21 20:42:00,42.0,-99.9,-100.00,West,279,1.0,2.0,-999,0.00,,,0.00,,2013-10-22 01:42:00,
2013-10-21 20:53:00,42.0,-99.9,-100.00,West,279,1.0,2.0,-999,0.00,,,0.00,,2013-10-22 01:53:00,
2013-10-21 21:12:00,41.0,-99.9,-100.00,WSW,247,3.0,3.0,-999,0.00,,,0.00,,2013-10-22 02:12:00,
2013-10-21 21:22:00,41.0,-99.9,-100.00,WSW,247,3.0,3.0,-999,0.00,,,0.00,,2013-10-22 02:22:00,
2013-10-21 21:43:00,41.0,-99.9,-100.00,WSW,242,3.0,4.0,-999,0.00,,,0.00,,2013-10-22 02:43:00,
2013-10-21 21:52:00,41.0,-99.9,-100.00,WSW,242,3.0,4.0,-999,0.00,,,0.00,,2013-10-22 02:52:00,
2013-10-21 22:12:00,40.0,-99.9,-100.00,West,269,3.0,4.0,-999,0.00,,,0.00,,2013-10-22 03:12:00,
2013-10-21 22:23:00,40.0,-99.9,-100.00,West,269,3.0,4.0,-999,0.00,,,0.00,,2013-10-22 03:23:00,
2013-10-21 22:45:00,40.0,-99.9,-100.00,WSW,242,3.0,5.0,-999,0.00,,,0.00,,2013-10-22 03:45:00,
2013-10-21 22:55:00,40.0,-99.9,-100.00,WSW,242,3.0,5.0,-999,0.00,,,0.00,,2013-10-22 03:55:00,
2013-10-21 23:14:00,39.0,-99.9,-100.00,WSW,255,3.0,4.0,-999,0.00,,,0.00,,2013-10-22 04:14:00,
2013-10-21 23:25:00,39.0,-99.9,-100.00,WSW,255,3.0,4.0,-999,0.00,,,0.00,,2013-10-22 04:25:00,
2013-10-21 23:43:00,39.0,-99.9,-100.00,West,266,4.0,4.0,-999,0.00,,,0.00,,2013-10-22 04:43:00,
2013-10-21 23:55:00,39.0,-99.9,-100.00,West,266,4.0,4.0,-999,0.00,,,0.00,,2013-10-22 04:55:00,